Regional Weather Roundup
Issued by NWS Jackson, KY

Home | Current Version | Previous Version | Graphics & Text | Print | Product List | Glossary On
Versions: 1 2 3 4 5 6 7 8 9 10 11 12 13 14 15 16 17 18 19 20 21 22 23 24 25 26 27 28
000
ASUS43 KJKL 200110
RWRJKL

EAST KENTUCKY HOURLY WEATHER ROUNDUP
NATIONAL WEATHER SERVICE JACKSON KY
800 PM EST SUN FEB 19 2017

NOTE: "FAIR" INDICATES FEW OR NO CLOUDS BELOW 12,000 FEET WITH
NO SIGNIFICANT WEATHER AND/OR OBSTRUCTIONS TO VISIBILITY.

* THESE REPORTS ARE NOT UNDER NWS QUALITY CONTROL AND MAY NOT
  REPORT WEATHER SUCH AS PRECIPITATION AND FOG.

KYZ079-080-083-085-087-088-110-112-115-119-120-200200
...EASTERN KENTUCKY...

CITY           SKY/WX    TMP DP  RH WIND       PRES   REMARKS
JACKSON        CLEAR     53  44  71 CALM      30.16R
LONDON         CLEAR     52  44  74 CALM      30.14S
SOMERSET*      CLEAR     52  43  71 CALM      30.15R
MONTICELLO*    CLEAR     48  44  86 NE8       30.15R
WILLIAMSBURG*  CLEAR     55  46  71 NW3       30.14S
MIDDLESBORO*   CLEAR     51  46  83 CALM      30.15S
HARLAN APT*    CLEAR     54  43  66 CALM      30.15S
PIKE CO APT*     N/A     55  44  66 CALM      30.16R
BIG SANDY APT* CLEAR     52  45  78 N6        30.16R
MOREHEAD APT*  PTCLDY    48  45  87 CALM      30.18S
ASHLAND*       MOCLDY    50  45  81 CALM      30.15S
$$

KYZ035-036-041-042-044-050-067-078-099-200200
...CENTRAL KENTUCKY...

CITY           SKY/WX    TMP DP  RH WIND       PRES   REMARKS
MT STERLING*   CLEAR     46  46 100 E3        30.17S
FLEMING/MASON* PTCLDY    47  45  91 CALM      30.17S
DANVILLE*      CLEAR     50  46  87 NE3       30.15S
LEXINGTON      CLEAR     49  45  86 NE9       30.14F
FRANKFORT      CLEAR     46  42  86 CALM      30.12F FOG
LOUISVILLE     PTCLDY    51  47  86 CALM      30.13S FOG
LEBANON*         N/A     54  48  82 CALM      30.14R
GLASGOW*       CLEAR     51  47  84 CALM      30.12S
BOWLING GREEN  CLEAR     56  50  80 CALM      30.12S
$$

KYZ091>093-OHZ055-061-077-WVZ005-015-034-035-042-200200
...SOUTHERN OHIO/WEST VIRGINIA...

CITY           SKY/WX    TMP DP  RH WIND       PRES   REMARKS
COVINGTON      CLEAR     48  45  89 S6        30.13S
COLUMBUS       PTCLDY    49  43  80 S3        30.13R
DAYTON         CLEAR     49  43  80 S6        30.14R
WILMINGTON     CLEAR     46  44  93 S7        30.14R FOG
HUNTINGTON     PTCLDY    51  44  77 CALM      30.16R
CHARLESTON     PTCLDY    50  45  83 CALM      30.16S
PINEVILLE*     CLEAR     41  37  85 MISG      30.21R
BECKLEY        CLEAR     40  38  93 CALM      30.16R
BLUEFIELD      CLEAR     46  40  79 CALM      30.16R
LOGAN CO APT*    N/A     52  45  76 CALM      30.16R
$$

VAZ002-007-008-TNZ017-027-036-066-071-200200
...SOUTHWEST VIRGINIA/EAST TENNESSEE...

CITY           SKY/WX    TMP DP  RH WIND       PRES   REMARKS
WISE*          CLEAR     52  41  66 CALM      30.18R
JONESVILLE*      N/A     50  45  81 CALM      30.16S
ABINGDON*      CLEAR     48  44  84 CALM      30.16R
BRISTOL        CLEAR     49  42  77 CALM      30.16R
MORRISTOWN*    PTCLDY    55  45  67 CALM      30.14S
SEVIERVILLE*   CLEAR     52  43  71 CALM      30.14S
KNOXVILLE      CLEAR     57  44  62 CALM      30.13R
LAFOLLETTE*    CLEAR     50  46  87 CALM      30.17R
OAK RIDGE      CLEAR     53  46  77 CALM      30.15R
CROSSVILLE     CLEAR     55  45  68 W3        30.15R
NASHVILLE      CLEAR     60  49  66 E5        30.12R
$$

...KEY TO REMARKS...
VSB - VISIBILITY IN MILES
WCI - WIND CHILL INDEX
HX  - HEAT INDEX

$$




USA.gov is the U.S. government's official web portal to all federal, state and local government web resources and services.